owner,sensor,date,latitude,longitude,air_temperature,qcFlag 
NOS,ioos:station:wmo:fpst2:1,2019-01-01T00:00:00Z,28.9360,-95.2940,13.1,11111222 
NOS,ioos:station:wmo:fpst2:1,2019-01-01T00:06:00Z,28.9360,-95.2940,13.2,11111222 
NOS,ioos:station:wmo:fpst2:1,2019-01-01T00:12:00Z,28.9360,-95.2940,13.2,11111222 
NOS,ioos:station:wmo:fpst2:1,2019-01-01T00:18:00Z,28.9360,-95.2940,13.2,11111222 
NOS,ioos:station:wmo:fpst2:1,2019-01-01T00:24:00Z,28.9360,-95.2940,13.2,11111222 
NOS,ioos:station:wmo:fpst2:1,2019-01-01T00:30:00Z,28.9360,-95.2940,13.2,11111222 
NOS,ioos:station:wmo:fpst2:1,2019-01-01T00:36:00Z,28.9360,-95.2940,13.3,11111222 
NOS,ioos:station:wmo:fpst2:1,2019-01-01T00:42:00Z,28.9360,-95.2940,13.3,11111222 
NOS,ioos:station:wmo:fpst2:1,2019-01-01T00:48:00Z,28.9360,-95.2940,13.3,11111222 
NOS,ioos:station:wmo:fpst2:1,2019-01-01T00:54:00Z,28.9360,-95.2940,13.4,11111222 
NOS,ioos:station:wmo:fpst2:1,2019-01-01T01:00:00Z,28.9360,-95.2940,13.4,11111222 
NOS,ioos:station:wmo:fpst2:1,2019-01-01T01:06:00Z,28.9360,-95.2940,13.4,11111222 
NOS,ioos:station:wmo:fpst2:1,2019-01-01T01:12:00Z,28.9360,-95.2940,13.4,11111222 
NOS,ioos:station:wmo:fpst2:1,2019-01-01T01:18:00Z,28.9360,-95.2940,13.4,11111222 
NOS,ioos:station:wmo:fpst2:1,2019-01-01T01:24:00Z,28.9360,-95.2940,13.4,11111222 
NOS,ioos:station:wmo:fpst2:1,2019-01-01T01:30:00Z,28.9360,-95.2940,13.4,11111222 
NOS,ioos:station:wmo:fpst2:1,2019-01-01T01:36:00Z,28.9360,-95.2940,13.4,11111222 
NOS,ioos:station:wmo:fpst2:1,2019-01-01T01:42:00Z,28.9360,-95.2940,13.5,11111222 
NOS,ioos:station:wmo:fpst2:1,2019-01-01T01:48:00Z,28.9360,-95.2940,13.5,11111222 
NOS,ioos:station:wmo:fpst2:1,2019-01-01T01:54:00Z,28.9360,-95.2940,13.5,11111222 
NOS,ioos:station:wmo:fpst2:1,2019-01-01T02:00:00Z,28.9360,-95.2940,13.5,11111222 
NOS,ioos:station:wmo:fpst2:1,2019-01-01T02:06:00Z,28.9360,-95.2940,13.6,11111222 
NOS,ioos:station:wmo:fpst2:1,2019-01-01T02:12:00Z,28.9360,-95.2940,13.4,11111222 
NOS,ioos:station:wmo:fpst2:1,2019-01-01T02:18:00Z,28.9360,-95.2940,13.4,11111222 
NOS,ioos:station:wmo:fpst2:1,2019-01-01T02:24:00Z,28.9360,-95.2940,13.4,11111222 
NOS,ioos:station:wmo:fpst2:1,2019-01-01T02:30:00Z,28.9360,-95.2940,13.4,11111222 
NOS,ioos:station:wmo:fpst2:1,2019-01-01T02:36:00Z,28.9360,-95.2940,13.3,11111222 
NOS,ioos:station:wmo:fpst2:1,2019-01-01T02:42:00Z,28.9360,-95.2940,13.4,11111222 
NOS,ioos:station:wmo:fpst2:1,2019-01-01T02:48:00Z,28.9360,-95.2940,13.3,11111222 
NOS,ioos:station:wmo:fpst2:1,2019-01-01T02:54:00Z,28.9360,-95.2940,13.4,11111222 
NOS,ioos:station:wmo:fpst2:1,2019-01-01T03:00:00Z,28.9360,-95.2940,13.4,11111222 
NOS,ioos:station:wmo:fpst2:1,2019-01-01T03:06:00Z,28.9360,-95.2940,13.4,11111222 
NOS,ioos:station:wmo:fpst2:1,2019-01-01T03:12:00Z,28.9360,-95.2940,13.4,11111222 
NOS,ioos:station:wmo:fpst2:1,2019-01-01T03:18:00Z,28.9360,-95.2940,13.3,11111222 
NOS,ioos:station:wmo:fpst2:1,2019-01-01T03:24:00Z,28.9360,-95.2940,13.4,11111222 
NOS,ioos:station:wmo:fpst2:1,2019-01-01T03:30:00Z,28.9360,-95.2940,13.3,11111222 
NOS,ioos:station:wmo:fpst2:1,2019-01-01T03:36:00Z,28.9360,-95.2940,13.3,11111222 
NOS,ioos:station:wmo:fpst2:1,2019-01-01T03:42:00Z,28.9360,-95.2940,13.3,11111222 
NOS,ioos:station:wmo:fpst2:1,2019-01-01T03:48:00Z,28.9360,-95.2940,13.3,11111222 
NOS,ioos:station:wmo:fpst2:1,2019-01-01T03:54:00Z,28.9360,-95.2940,13.3,11111222 
NOS,ioos:station:wmo:fpst2:1,2019-01-01T04:00:00Z,28.9360,-95.2940,13.3,11111222 
NOS,ioos:station:wmo:fpst2:1,2019-01-01T04:06:00Z,28.9360,-95.2940,13.3,11111222 
NOS,ioos:station:wmo:fpst2:1,2019-01-01T04:12:00Z,28.9360,-95.2940,13.2,11111222 
NOS,ioos:station:wmo:fpst2:1,2019-01-01T04:18:00Z,28.9360,-95.2940,13.2,11111222 
NOS,ioos:station:wmo:fpst2:1,2019-01-01T04:24:00Z,28.9360,-95.2940,13.2,11111222 
NOS,ioos:station:wmo:fpst2:1,2019-01-01T04:30:00Z,28.9360,-95.2940,13.1,11111222 
NOS,ioos:station:wmo:fpst2:1,2019-01-01T04:36:00Z,28.9360,-95.2940,13.1,11111222 
NOS,ioos:station:wmo:fpst2:1,2019-01-01T04:42:00Z,28.9360,-95.2940,13.0,11111222 
NOS,ioos:station:wmo:fpst2:1,2019-01-01T04:48:00Z,28.9360,-95.2940,12.9,11111222 
NOS,ioos:station:wmo:fpst2:1,2019-01-01T04:54:00Z,28.9360,-95.2940,12.8,11111222 
NOS,ioos:station:wmo:fpst2:1,2019-01-01T05:00:00Z,28.9360,-95.2940,12.8,11111222 
NOS,ioos:station:wmo:fpst2:1,2019-01-01T05:06:00Z,28.9360,-95.2940,13.2,11111222 
NOS,ioos:station:wmo:fpst2:1,2019-01-01T05:12:00Z,28.9360,-95.2940,12.9,11111222 
NOS,ioos:station:wmo:fpst2:1,2019-01-01T05:18:00Z,28.9360,-95.2940,12.8,11111222 
NOS,ioos:station:wmo:fpst2:1,2019-01-01T05:24:00Z,28.9360,-95.2940,12.7,11111222 
NOS,ioos:station:wmo:fpst2:1,2019-01-01T05:30:00Z,28.9360,-95.2940,12.7,11111222 
NOS,ioos:station:wmo:fpst2:1,2019-01-01T05:36:00Z,28.9360,-95.2940,12.7,11111222 
NOS,ioos:station:wmo:fpst2:1,2019-01-01T05:42:00Z,28.9360,-95.2940,12.7,11111222 
NOS,ioos:station:wmo:fpst2:1,2019-01-01T05:48:00Z,28.9360,-95.2940,12.6,11111222 
NOS,ioos:station:wmo:fpst2:1,2019-01-01T05:54:00Z,28.9360,-95.2940,12.5,11111222 
NOS,ioos:station:wmo:fpst2:1,2019-01-01T06:00:00Z,28.9360,-95.2940,12.6,11111222 
NOS,ioos:station:wmo:fpst2:1,2019-01-01T06:06:00Z,28.9360,-95.2940,12.5,11111222 
NOS,ioos:station:wmo:fpst2:1,2019-01-01T06:12:00Z,28.9360,-95.2940,12.5,11111222 
NOS,ioos:station:wmo:fpst2:1,2019-01-01T06:18:00Z,28.9360,-95.2940,12.8,11111222 
NOS,ioos:station:wmo:fpst2:1,2019-01-01T06:24:00Z,28.9360,-95.2940,12.6,11111222 
NOS,ioos:station:wmo:fpst2:1,2019-01-01T06:30:00Z,28.9360,-95.2940,12.5,11111222 
NOS,ioos:station:wmo:fpst2:1,2019-01-01T06:36:00Z,28.9360,-95.2940,12.4,11111222 
NOS,ioos:station:wmo:fpst2:1,2019-01-01T06:42:00Z,28.9360,-95.2940,12.5,11111222 
NOS,ioos:station:wmo:fpst2:1,2019-01-01T06:48:00Z,28.9360,-95.2940,12.4,11111222 
NOS,ioos:station:wmo:fpst2:1,2019-01-01T06:54:00Z,28.9360,-95.2940,12.4,11111222 
NOS,ioos:station:wmo:fpst2:1,2019-01-01T07:00:00Z,28.9360,-95.2940,12.4,11111222 
NOS,ioos:station:wmo:fpst2:1,2019-01-01T07:06:00Z,28.9360,-95.2940,12.3,11111222 
NOS,ioos:station:wmo:fpst2:1,2019-01-01T07:12:00Z,28.9360,-95.2940,12.2,11111222 
NOS,ioos:station:wmo:fpst2:1,2019-01-01T07:18:00Z,28.9360,-95.2940,12.1,11111222 
NOS,ioos:station:wmo:fpst2:1,2019-01-01T07:24:00Z,28.9360,-95.2940,11.9,11111222 
NOS,ioos:station:wmo:fpst2:1,2019-01-01T07:30:00Z,28.9360,-95.2940,11.7,11111222 
NOS,ioos:station:wmo:fpst2:1,2019-01-01T07:36:00Z,28.9360,-95.2940,11.8,11111222 
NOS,ioos:station:wmo:fpst2:1,2019-01-01T07:42:00Z,28.9360,-95.2940,11.6,11111222 
NOS,ioos:station:wmo:fpst2:1,2019-01-01T07:48:00Z,28.9360,-95.2940,11.7,11111222 
NOS,ioos:station:wmo:fpst2:1,2019-01-01T07:54:00Z,28.9360,-95.2940,11.7,11111222 
NOS,ioos:station:wmo:fpst2:1,2019-01-01T08:00:00Z,28.9360,-95.2940,11.8,11111222 
NOS,ioos:station:wmo:fpst2:1,2019-01-01T08:06:00Z,28.9360,-95.2940,11.6,11111222 
NOS,ioos:station:wmo:fpst2:1,2019-01-01T08:12:00Z,28.9360,-95.2940,11.4,11111222 
NOS,ioos:station:wmo:fpst2:1,2019-01-01T08:18:00Z,28.9360,-95.2940,11.5,11111222 
NOS,ioos:station:wmo:fpst2:1,2019-01-01T08:24:00Z,28.9360,-95.2940,11.2,11111222 
NOS,ioos:station:wmo:fpst2:1,2019-01-01T08:30:00Z,28.9360,-95.2940,10.9,11111222 
NOS,ioos:station:wmo:fpst2:1,2019-01-01T08:36:00Z,28.9360,-95.2940,10.9,11111222 
NOS,ioos:station:wmo:fpst2:1,2019-01-01T08:42:00Z,28.9360,-95.2940,10.8,11111222 
NOS,ioos:station:wmo:fpst2:1,2019-01-01T08:48:00Z,28.9360,-95.2940,10.9,11111222 
NOS,ioos:station:wmo:fpst2:1,2019-01-01T08:54:00Z,28.9360,-95.2940,10.8,11111222 
NOS,ioos:station:wmo:fpst2:1,2019-01-01T09:00:00Z,28.9360,-95.2940,10.5,11111222 
NOS,ioos:station:wmo:fpst2:1,2019-01-01T09:06:00Z,28.9360,-95.2940,10.3,11111222 
NOS,ioos:station:wmo:fpst2:1,2019-01-01T09:12:00Z,28.9360,-95.2940,10.2,11111222 
NOS,ioos:station:wmo:fpst2:1,2019-01-01T09:18:00Z,28.9360,-95.2940,10.1,11111222 
NOS,ioos:station:wmo:fpst2:1,2019-01-01T09:24:00Z,28.9360,-95.2940,10.0,11111222 
NOS,ioos:station:wmo:fpst2:1,2019-01-01T09:30:00Z,28.9360,-95.2940,9.8,11111222 
NOS,ioos:station:wmo:fpst2:1,2019-01-01T09:36:00Z,28.9360,-95.2940,9.8,11111222 
NOS,ioos:station:wmo:fpst2:1,2019-01-01T09:42:00Z,28.9360,-95.2940,9.9,11111222 
NOS,ioos:station:wmo:fpst2:1,2019-01-01T09:48:00Z,28.9360,-95.2940,9.8,11111222 
NOS,ioos:station:wmo:fpst2:1,2019-01-01T09:54:00Z,28.9360,-95.2940,9.8,11111222 
NOS,ioos:station:wmo:fpst2:1,2019-01-01T10:00:00Z,28.9360,-95.2940,9.8,11111222 
NOS,ioos:station:wmo:fpst2:1,2019-01-01T10:06:00Z,28.9360,-95.2940,9.8,11111222 
NOS,ioos:station:wmo:fpst2:1,2019-01-01T10:12:00Z,28.9360,-95.2940,9.8,11111222 
NOS,ioos:station:wmo:fpst2:1,2019-01-01T10:18:00Z,28.9360,-95.2940,9.6,11111222 
NOS,ioos:station:wmo:fpst2:1,2019-01-01T10:24:00Z,28.9360,-95.2940,9.5,11111222 
NOS,ioos:station:wmo:fpst2:1,2019-01-01T10:30:00Z,28.9360,-95.2940,9.4,11111222 
NOS,ioos:station:wmo:fpst2:1,2019-01-01T10:36:00Z,28.9360,-95.2940,9.3,11111222 
NOS,ioos:station:wmo:fpst2:1,2019-01-01T10:42:00Z,28.9360,-95.2940,9.5,11111222 
NOS,ioos:station:wmo:fpst2:1,2019-01-01T10:48:00Z,28.9360,-95.2940,9.5,11111222 
NOS,ioos:station:wmo:fpst2:1,2019-01-01T10:54:00Z,28.9360,-95.2940,9.3,11111222 
NOS,ioos:station:wmo:fpst2:1,2019-01-01T11:00:00Z,28.9360,-95.2940,9.4,11111222 
NOS,ioos:station:wmo:fpst2:1,2019-01-01T11:06:00Z,28.9360,-95.2940,9.2,11111222 
NOS,ioos:station:wmo:fpst2:1,2019-01-01T11:12:00Z,28.9360,-95.2940,9.3,11111222 
NOS,ioos:station:wmo:fpst2:1,2019-01-01T11:18:00Z,28.9360,-95.2940,9.2,11111222 
NOS,ioos:station:wmo:fpst2:1,2019-01-01T11:24:00Z,28.9360,-95.2940,9.1,11111222 
NOS,ioos:station:wmo:fpst2:1,2019-01-01T11:30:00Z,28.9360,-95.2940,8.9,11111222 
NOS,ioos:station:wmo:fpst2:1,2019-01-01T11:36:00Z,28.9360,-95.2940,8.9,11111222 
NOS,ioos:station:wmo:fpst2:1,2019-01-01T11:42:00Z,28.9360,-95.2940,8.9,11111222 
NOS,ioos:station:wmo:fpst2:1,2019-01-01T11:48:00Z,28.9360,-95.2940,9.0,11111222 
NOS,ioos:station:wmo:fpst2:1,2019-01-01T11:54:00Z,28.9360,-95.2940,8.6,11111222 
NOS,ioos:station:wmo:fpst2:1,2019-01-01T12:00:00Z,28.9360,-95.2940,8.4,11111222 
NOS,ioos:station:wmo:fpst2:1,2019-01-01T12:06:00Z,28.9360,-95.2940,8.4,11111222 
NOS,ioos:station:wmo:fpst2:1,2019-01-01T12:12:00Z,28.9360,-95.2940,8.4,11111222 
NOS,ioos:station:wmo:fpst2:1,2019-01-01T12:18:00Z,28.9360,-95.2940,8.6,11111222 
NOS,ioos:station:wmo:fpst2:1,2019-01-01T12:24:00Z,28.9360,-95.2940,8.6,11111222 
NOS,ioos:station:wmo:fpst2:1,2019-01-01T12:30:00Z,28.9360,-95.2940,8.5,11111222 
NOS,ioos:station:wmo:fpst2:1,2019-01-01T12:36:00Z,28.9360,-95.2940,8.5,11111222 
NOS,ioos:station:wmo:fpst2:1,2019-01-01T12:42:00Z,28.9360,-95.2940,8.5,11111222 
NOS,ioos:station:wmo:fpst2:1,2019-01-01T12:48:00Z,28.9360,-95.2940,8.7,11111222 
NOS,ioos:station:wmo:fpst2:1,2019-01-01T12:54:00Z,28.9360,-95.2940,8.6,11111222 
NOS,ioos:station:wmo:fpst2:1,2019-01-01T13:00:00Z,28.9360,-95.2940,8.6,11111222 
NOS,ioos:station:wmo:fpst2:1,2019-01-01T13:06:00Z,28.9360,-95.2940,8.5,11111222 
NOS,ioos:station:wmo:fpst2:1,2019-01-01T13:12:00Z,28.9360,-95.2940,8.3,11111222 
NOS,ioos:station:wmo:fpst2:1,2019-01-01T13:18:00Z,28.9360,-95.2940,8.5,11111222 
NOS,ioos:station:wmo:fpst2:1,2019-01-01T13:24:00Z,28.9360,-95.2940,8.8,11111222 
NOS,ioos:station:wmo:fpst2:1,2019-01-01T13:30:00Z,28.9360,-95.2940,8.9,11111222 
NOS,ioos:station:wmo:fpst2:1,2019-01-01T13:36:00Z,28.9360,-95.2940,8.9,11111222 
NOS,ioos:station:wmo:fpst2:1,2019-01-01T13:42:00Z,28.9360,-95.2940,9.0,11111222 
NOS,ioos:station:wmo:fpst2:1,2019-01-01T13:48:00Z,28.9360,-95.2940,9.4,11111222 
NOS,ioos:station:wmo:fpst2:1,2019-01-01T13:54:00Z,28.9360,-95.2940,9.5,11111222 
NOS,ioos:station:wmo:fpst2:1,2019-01-01T14:00:00Z,28.9360,-95.2940,9.5,11111222 
NOS,ioos:station:wmo:fpst2:1,2019-01-01T14:06:00Z,28.9360,-95.2940,9.7,11111222 
NOS,ioos:station:wmo:fpst2:1,2019-01-01T14:12:00Z,28.9360,-95.2940,9.6,11111222 
NOS,ioos:station:wmo:fpst2:1,2019-01-01T14:18:00Z,28.9360,-95.2940,9.6,11111222 
NOS,ioos:station:wmo:fpst2:1,2019-01-01T14:24:00Z,28.9360,-95.2940,9.8,11111222 
NOS,ioos:station:wmo:fpst2:1,2019-01-01T14:30:00Z,28.9360,-95.2940,10.0,11111222 
NOS,ioos:station:wmo:fpst2:1,2019-01-01T14:36:00Z,28.9360,-95.2940,10.3,11111222 
NOS,ioos:station:wmo:fpst2:1,2019-01-01T14:42:00Z,28.9360,-95.2940,10.6,11111222 
NOS,ioos:station:wmo:fpst2:1,2019-01-01T14:48:00Z,28.9360,-95.2940,10.7,11111222 
NOS,ioos:station:wmo:fpst2:1,2019-01-01T14:54:00Z,28.9360,-95.2940,10.8,11111222 
NOS,ioos:station:wmo:fpst2:1,2019-01-01T15:00:00Z,28.9360,-95.2940,10.7,11111222 
NOS,ioos:station:wmo:fpst2:1,2019-01-01T15:06:00Z,28.9360,-95.2940,10.9,11111222 
NOS,ioos:station:wmo:fpst2:1,2019-01-01T15:12:00Z,28.9360,-95.2940,10.9,11111222 
NOS,ioos:station:wmo:fpst2:1,2019-01-01T15:18:00Z,28.9360,-95.2940,11.0,11111222 
NOS,ioos:station:wmo:fpst2:1,2019-01-01T15:24:00Z,28.9360,-95.2940,11.4,11111222 
NOS,ioos:station:wmo:fpst2:1,2019-01-01T15:30:00Z,28.9360,-95.2940,11.6,11111222 
NOS,ioos:station:wmo:fpst2:1,2019-01-01T15:36:00Z,28.9360,-95.2940,11.8,11111222 
NOS,ioos:station:wmo:fpst2:1,2019-01-01T15:42:00Z,28.9360,-95.2940,12.0,11111222 
NOS,ioos:station:wmo:fpst2:1,2019-01-01T15:48:00Z,28.9360,-95.2940,12.4,11111222 
NOS,ioos:station:wmo:fpst2:1,2019-01-01T15:54:00Z,28.9360,-95.2940,12.8,11111222 
NOS,ioos:station:wmo:fpst2:1,2019-01-01T16:00:00Z,28.9360,-95.2940,12.9,11111222 
NOS,ioos:station:wmo:fpst2:1,2019-01-01T16:06:00Z,28.9360,-95.2940,13.0,11111222 
NOS,ioos:station:wmo:fpst2:1,2019-01-01T16:12:00Z,28.9360,-95.2940,13.1,11111222 
NOS,ioos:station:wmo:fpst2:1,2019-01-01T16:24:00Z,28.9360,-95.2940,13.4,11111222 
NOS,ioos:station:wmo:fpst2:1,2019-01-01T16:30:00Z,28.9360,-95.2940,13.4,11111222 
NOS,ioos:station:wmo:fpst2:1,2019-01-01T16:36:00Z,28.9360,-95.2940,13.5,11111222 
NOS,ioos:station:wmo:fpst2:1,2019-01-01T16:42:00Z,28.9360,-95.2940,13.6,11111222 
NOS,ioos:station:wmo:fpst2:1,2019-01-01T16:48:00Z,28.9360,-95.2940,13.7,11111222 
NOS,ioos:station:wmo:fpst2:1,2019-01-01T16:54:00Z,28.9360,-95.2940,14.0,11111222 
NOS,ioos:station:wmo:fpst2:1,2019-01-01T17:00:00Z,28.9360,-95.2940,14.2,11111222 
NOS,ioos:station:wmo:fpst2:1,2019-01-01T17:06:00Z,28.9360,-95.2940,14.5,11111222 
NOS,ioos:station:wmo:fpst2:1,2019-01-01T17:12:00Z,28.9360,-95.2940,14.5,11111222 
NOS,ioos:station:wmo:fpst2:1,2019-01-01T17:18:00Z,28.9360,-95.2940,14.5,11111222 
NOS,ioos:station:wmo:fpst2:1,2019-01-01T17:24:00Z,28.9360,-95.2940,14.5,11111222 
NOS,ioos:station:wmo:fpst2:1,2019-01-01T17:30:00Z,28.9360,-95.2940,14.6,11111222 
NOS,ioos:station:wmo:fpst2:1,2019-01-01T17:36:00Z,28.9360,-95.2940,14.6,11111222 
NOS,ioos:station:wmo:fpst2:1,2019-01-01T17:42:00Z,28.9360,-95.2940,14.6,11111222 
NOS,ioos:station:wmo:fpst2:1,2019-01-01T17:48:00Z,28.9360,-95.2940,14.5,11111222 
NOS,ioos:station:wmo:fpst2:1,2019-01-01T17:54:00Z,28.9360,-95.2940,14.5,11111222 
NOS,ioos:station:wmo:fpst2:1,2019-01-01T18:00:00Z,28.9360,-95.2940,14.5,11111222 
NOS,ioos:station:wmo:fpst2:1,2019-01-01T18:06:00Z,28.9360,-95.2940,14.4,11111222 
NOS,ioos:station:wmo:fpst2:1,2019-01-01T18:12:00Z,28.9360,-95.2940,14.4,11111222 
NOS,ioos:station:wmo:fpst2:1,2019-01-01T18:18:00Z,28.9360,-95.2940,14.5,11111222 
NOS,ioos:station:wmo:fpst2:1,2019-01-01T18:24:00Z,28.9360,-95.2940,14.6,11111222 
NOS,ioos:station:wmo:fpst2:1,2019-01-01T18:30:00Z,28.9360,-95.2940,14.6,11111222 
NOS,ioos:station:wmo:fpst2:1,2019-01-01T18:36:00Z,28.9360,-95.2940,14.8,11111222 
NOS,ioos:station:wmo:fpst2:1,2019-01-01T18:42:00Z,28.9360,-95.2940,14.8,11111222 
NOS,ioos:station:wmo:fpst2:1,2019-01-01T18:48:00Z,28.9360,-95.2940,15.0,11111222 
NOS,ioos:station:wmo:fpst2:1,2019-01-01T18:54:00Z,28.9360,-95.2940,14.9,11111222 
NOS,ioos:station:wmo:fpst2:1,2019-01-01T19:00:00Z,28.9360,-95.2940,14.9,11111222 
NOS,ioos:station:wmo:fpst2:1,2019-01-01T19:06:00Z,28.9360,-95.2940,15.0,11111222 
NOS,ioos:station:wmo:fpst2:1,2019-01-01T19:12:00Z,28.9360,-95.2940,15.0,11111222 
NOS,ioos:station:wmo:fpst2:1,2019-01-01T19:18:00Z,28.9360,-95.2940,15.0,11111222 
NOS,ioos:station:wmo:fpst2:1,2019-01-01T19:24:00Z,28.9360,-95.2940,15.0,11111222 
NOS,ioos:station:wmo:fpst2:1,2019-01-01T19:30:00Z,28.9360,-95.2940,15.1,11111222 
NOS,ioos:station:wmo:fpst2:1,2019-01-01T19:36:00Z,28.9360,-95.2940,15.2,11111222 
NOS,ioos:station:wmo:fpst2:1,2019-01-01T19:42:00Z,28.9360,-95.2940,15.2,11111222 
NOS,ioos:station:wmo:fpst2:1,2019-01-01T19:48:00Z,28.9360,-95.2940,15.3,11111222 
NOS,ioos:station:wmo:fpst2:1,2019-01-01T19:54:00Z,28.9360,-95.2940,15.3,11111222 
NOS,ioos:station:wmo:fpst2:1,2019-01-01T20:00:00Z,28.9360,-95.2940,15.3,11111222 
NOS,ioos:station:wmo:fpst2:1,2019-01-01T20:06:00Z,28.9360,-95.2940,15.3,11111222 
NOS,ioos:station:wmo:fpst2:1,2019-01-01T20:12:00Z,28.9360,-95.2940,15.3,11111222 
NOS,ioos:station:wmo:fpst2:1,2019-01-01T20:18:00Z,28.9360,-95.2940,15.3,11111222 
NOS,ioos:station:wmo:fpst2:1,2019-01-01T20:24:00Z,28.9360,-95.2940,15.4,11111222 
NOS,ioos:station:wmo:fpst2:1,2019-01-01T20:30:00Z,28.9360,-95.2940,15.4,11111222 
NOS,ioos:station:wmo:fpst2:1,2019-01-01T20:36:00Z,28.9360,-95.2940,15.3,11111222 
NOS,ioos:station:wmo:fpst2:1,2019-01-01T20:42:00Z,28.9360,-95.2940,15.3,11111222 
NOS,ioos:station:wmo:fpst2:1,2019-01-01T20:48:00Z,28.9360,-95.2940,15.5,11111222 
NOS,ioos:station:wmo:fpst2:1,2019-01-01T20:54:00Z,28.9360,-95.2940,15.4,11111222 
NOS,ioos:station:wmo:fpst2:1,2019-01-01T21:00:00Z,28.9360,-95.2940,15.3,11111222 
NOS,ioos:station:wmo:fpst2:1,2019-01-01T21:06:00Z,28.9360,-95.2940,15.4,11111222 
NOS,ioos:station:wmo:fpst2:1,2019-01-01T21:12:00Z,28.9360,-95.2940,15.4,11111222 
NOS,ioos:station:wmo:fpst2:1,2019-01-01T21:18:00Z,28.9360,-95.2940,15.4,11111222 
NOS,ioos:station:wmo:fpst2:1,2019-01-01T21:24:00Z,28.9360,-95.2940,15.6,11111222 
NOS,ioos:station:wmo:fpst2:1,2019-01-01T21:30:00Z,28.9360,-95.2940,15.6,11111222 
NOS,ioos:station:wmo:fpst2:1,2019-01-01T21:36:00Z,28.9360,-95.2940,15.6,11111222 
NOS,ioos:station:wmo:fpst2:1,2019-01-01T21:42:00Z,28.9360,-95.2940,15.7,11111222 
NOS,ioos:station:wmo:fpst2:1,2019-01-01T21:48:00Z,28.9360,-95.2940,15.8,11111222 
NOS,ioos:station:wmo:fpst2:1,2019-01-01T21:54:00Z,28.9360,-95.2940,15.8,11111222 
NOS,ioos:station:wmo:fpst2:1,2019-01-01T22:00:00Z,28.9360,-95.2940,15.8,11111222 
NOS,ioos:station:wmo:fpst2:1,2019-01-01T22:06:00Z,28.9360,-95.2940,15.8,11111222 
NOS,ioos:station:wmo:fpst2:1,2019-01-01T22:12:00Z,28.9360,-95.2940,15.9,11111222 
NOS,ioos:station:wmo:fpst2:1,2019-01-01T22:18:00Z,28.9360,-95.2940,15.9,11111222 
NOS,ioos:station:wmo:fpst2:1,2019-01-01T22:24:00Z,28.9360,-95.2940,16.0,11111222 
NOS,ioos:station:wmo:fpst2:1,2019-01-01T22:30:00Z,28.9360,-95.2940,16.0,11111222 
NOS,ioos:station:wmo:fpst2:1,2019-01-01T22:36:00Z,28.9360,-95.2940,16.0,11111222 
NOS,ioos:station:wmo:fpst2:1,2019-01-01T22:42:00Z,28.9360,-95.2940,15.9,11111222 
NOS,ioos:station:wmo:fpst2:1,2019-01-01T22:54:00Z,28.9360,-95.2940,15.9,11111222 
NOS,ioos:station:wmo:fpst2:1,2019-01-01T23:00:00Z,28.9360,-95.2940,15.9,11111222 
NOS,ioos:station:wmo:fpst2:1,2019-01-01T23:06:00Z,28.9360,-95.2940,15.8,11111222 
NOS,ioos:station:wmo:fpst2:1,2019-01-01T23:12:00Z,28.9360,-95.2940,15.8,11111222 
NOS,ioos:station:wmo:fpst2:1,2019-01-01T23:18:00Z,28.9360,-95.2940,15.7,11111222 
NOS,ioos:station:wmo:fpst2:1,2019-01-01T23:24:00Z,28.9360,-95.2940,15.7,11111222 
NOS,ioos:station:wmo:fpst2:1,2019-01-01T23:30:00Z,28.9360,-95.2940,15.7,11111222 
NOS,ioos:station:wmo:fpst2:1,2019-01-01T23:36:00Z,28.9360,-95.2940,15.7,11111222 
NOS,ioos:station:wmo:fpst2:1,2019-01-01T23:42:00Z,28.9360,-95.2940,15.7,11111222 
NOS,ioos:station:wmo:fpst2:1,2019-01-01T23:48:00Z,28.9360,-95.2940,15.7,11111222 
NOS,ioos:station:wmo:fpst2:1,2019-01-01T23:54:00Z,28.9360,-95.2940,15.6,11111222 
NOS,ioos:station:wmo:fpst2:1,2019-01-02T00:00:00Z,28.9360,-95.2940,15.6,11111222 
NOS,ioos:station:wmo:fpst2:1,2019-01-02T00:06:00Z,28.9360,-95.2940,15.5,11111222 
NOS,ioos:station:wmo:fpst2:1,2019-01-02T00:12:00Z,28.9360,-95.2940,15.5,11111222 
NOS,ioos:station:wmo:fpst2:1,2019-01-02T00:18:00Z,28.9360,-95.2940,15.5,11111222 
NOS,ioos:station:wmo:fpst2:1,2019-01-02T00:24:00Z,28.9360,-95.2940,15.4,11111222 
NOS,ioos:station:wmo:fpst2:1,2019-01-02T00:30:00Z,28.9360,-95.2940,15.5,11111222 
NOS,ioos:station:wmo:fpst2:1,2019-01-02T00:36:00Z,28.9360,-95.2940,15.5,11111222 
NOS,ioos:station:wmo:fpst2:1,2019-01-02T00:42:00Z,28.9360,-95.2940,15.5,11111222 
NOS,ioos:station:wmo:fpst2:1,2019-01-02T00:48:00Z,28.9360,-95.2940,15.5,11111222 
NOS,ioos:station:wmo:fpst2:1,2019-01-02T00:54:00Z,28.9360,-95.2940,15.5,11111222 
NOS,ioos:station:wmo:fpst2:1,2019-01-02T01:00:00Z,28.9360,-95.2940,15.5,11111222 
NOS,ioos:station:wmo:fpst2:1,2019-01-02T01:06:00Z,28.9360,-95.2940,15.5,11111222 
NOS,ioos:station:wmo:fpst2:1,2019-01-02T01:12:00Z,28.9360,-95.2940,15.5,11111222 
NOS,ioos:station:wmo:fpst2:1,2019-01-02T01:18:00Z,28.9360,-95.2940,15.6,11111222 
NOS,ioos:station:wmo:fpst2:1,2019-01-02T01:24:00Z,28.9360,-95.2940,15.6,11111222 
NOS,ioos:station:wmo:fpst2:1,2019-01-02T01:30:00Z,28.9360,-95.2940,15.5,11111222 
NOS,ioos:station:wmo:fpst2:1,2019-01-02T01:36:00Z,28.9360,-95.2940,15.5,11111222 
NOS,ioos:station:wmo:fpst2:1,2019-01-02T01:42:00Z,28.9360,-95.2940,15.4,11111222 
NOS,ioos:station:wmo:fpst2:1,2019-01-02T01:48:00Z,28.9360,-95.2940,15.3,11111222 
NOS,ioos:station:wmo:fpst2:1,2019-01-02T01:54:00Z,28.9360,-95.2940,15.2,11111222 
NOS,ioos:station:wmo:fpst2:1,2019-01-02T02:00:00Z,28.9360,-95.2940,15.3,11111222 
NOS,ioos:station:wmo:fpst2:1,2019-01-02T02:06:00Z,28.9360,-95.2940,15.2,11111222 
NOS,ioos:station:wmo:fpst2:1,2019-01-02T02:12:00Z,28.9360,-95.2940,15.2,11111222 
NOS,ioos:station:wmo:fpst2:1,2019-01-02T02:18:00Z,28.9360,-95.2940,15.2,11111222 
NOS,ioos:station:wmo:fpst2:1,2019-01-02T02:24:00Z,28.9360,-95.2940,15.4,11111222 
NOS,ioos:station:wmo:fpst2:1,2019-01-02T02:30:00Z,28.9360,-95.2940,15.3,11111222 
NOS,ioos:station:wmo:fpst2:1,2019-01-02T02:36:00Z,28.9360,-95.2940,15.2,11111222 
NOS,ioos:station:wmo:fpst2:1,2019-01-02T02:42:00Z,28.9360,-95.2940,15.2,11111222 
NOS,ioos:station:wmo:fpst2:1,2019-01-02T02:48:00Z,28.9360,-95.2940,15.1,11111222 
NOS,ioos:station:wmo:fpst2:1,2019-01-02T02:54:00Z,28.9360,-95.2940,15.1,11111222 
NOS,ioos:station:wmo:fpst2:1,2019-01-02T03:00:00Z,28.9360,-95.2940,15.1,11111222 
NOS,ioos:station:wmo:fpst2:1,2019-01-02T03:06:00Z,28.9360,-95.2940,15.0,11111222 
NOS,ioos:station:wmo:fpst2:1,2019-01-02T03:12:00Z,28.9360,-95.2940,14.9,11111222 
NOS,ioos:station:wmo:fpst2:1,2019-01-02T03:18:00Z,28.9360,-95.2940,14.8,11111222 
NOS,ioos:station:wmo:fpst2:1,2019-01-02T03:24:00Z,28.9360,-95.2940,14.8,11111222 
NOS,ioos:station:wmo:fpst2:1,2019-01-02T03:30:00Z,28.9360,-95.2940,14.8,11111222 
NOS,ioos:station:wmo:fpst2:1,2019-01-02T03:36:00Z,28.9360,-95.2940,14.8,11111222 
NOS,ioos:station:wmo:fpst2:1,2019-01-02T03:42:00Z,28.9360,-95.2940,14.8,11111222 
NOS,ioos:station:wmo:fpst2:1,2019-01-02T03:48:00Z,28.9360,-95.2940,14.8,11111222 
NOS,ioos:station:wmo:fpst2:1,2019-01-02T03:54:00Z,28.9360,-95.2940,14.8,11111222 
NOS,ioos:station:wmo:fpst2:1,2019-01-02T04:00:00Z,28.9360,-95.2940,14.8,11111222 
NOS,ioos:station:wmo:fpst2:1,2019-01-02T04:06:00Z,28.9360,-95.2940,14.8,11111222 
NOS,ioos:station:wmo:fpst2:1,2019-01-02T04:12:00Z,28.9360,-95.2940,14.8,11111222 
NOS,ioos:station:wmo:fpst2:1,2019-01-02T04:18:00Z,28.9360,-95.2940,14.8,11111222 
NOS,ioos:station:wmo:fpst2:1,2019-01-02T04:24:00Z,28.9360,-95.2940,14.8,11111222 
NOS,ioos:station:wmo:fpst2:1,2019-01-02T04:30:00Z,28.9360,-95.2940,14.7,11111222 
NOS,ioos:station:wmo:fpst2:1,2019-01-02T04:36:00Z,28.9360,-95.2940,14.7,11111222 
NOS,ioos:station:wmo:fpst2:1,2019-01-02T04:42:00Z,28.9360,-95.2940,14.7,11111222 
NOS,ioos:station:wmo:fpst2:1,2019-01-02T04:48:00Z,28.9360,-95.2940,14.6,11111222 
NOS,ioos:station:wmo:fpst2:1,2019-01-02T04:54:00Z,28.9360,-95.2940,14.5,11111222 
NOS,ioos:station:wmo:fpst2:1,2019-01-02T05:00:00Z,28.9360,-95.2940,14.5,11111222 
NOS,ioos:station:wmo:fpst2:1,2019-01-02T05:06:00Z,28.9360,-95.2940,14.5,11111222 
NOS,ioos:station:wmo:fpst2:1,2019-01-02T05:12:00Z,28.9360,-95.2940,14.5,11111222 
NOS,ioos:station:wmo:fpst2:1,2019-01-02T05:24:00Z,28.9360,-95.2940,14.4,11111222 